{"data":{"norad_id":62785,"intl_designator":"2025-016A","name":"QIANFAN-55","alt_names":[],"object_type":"PAYLOAD","status":"ACTIVE","operator":null,"country":"PRC","launch_date":"2025-01-23","launch_site_code":"TAISC","launch_vehicle":null,"mission":null,"orbit_class":"UNKNOWN","rcs_meters":null,"size_class":null,"mass_kg":null,"dimensions":null,"purposes":[],"wikipedia_slug":null,"has_3d_model":false,"image_url":null,"decayed_at":null,"tle_current":{"epoch":"2026-05-25T03:49:51.320064Z","epoch_age_seconds":54493,"freshness":"FRESH","line1":"1 62785U 25016A   26145.15962176  .00000111  00000+0  15364-3 0  9991","line2":"2 62785  88.9734  86.2622 0015155 233.0729 126.9034 13.51012696 69259","mean_motion":13.51012696,"eccentricity":0.0015155,"inclination_deg":88.9734,"raan_deg":86.2622,"arg_perigee_deg":233.0729,"mean_anomaly_deg":126.9034,"bstar":0.00015364,"rev_number":6925,"period_min":106.58671115849,"perigee_km":1057.2495006883,"apogee_km":1079.8203633142,"semimajor_km":7446.6719320013,"source":"CELESTRAK","updated_at":"2026-05-25T13:38:03.250178Z"}}}